Regional Weather Roundup
Issued by NWS

Home | Current Version | Previous Version | Graphics & Text | Print | Product List | Glossary On
Versions: 1 2 3 4 5 6 7 8 9 10 11 12 13 14 15 16 17 18 19 20 21 22 23 24 25 26 27 28 29 30 31 32 33 34 35 36 37 38 39 40 41 42 43 44 45 46 47 48 49 50
000
ASUS45 KSLC 200910
RWRUT

UTAH REGIONAL WEATHER ROUNDUP
NATIONAL WEATHER SERVICE SALT LAKE CITY UT
300 AM MDT WED AUG 20 2014

UTZ001>011-023>025-201000-

NORTHERN UTAH

CITY           SKY/WX    TMP DP  RH WIND       PRES   REMARKS
HILL AFB       CLOUDY    65  53  66 SE6       29.93S
LOGAN          CLEAR     59  52  77 SW8       29.92R
OGDEN          CLOUDY    66  53  63 S10       29.90S
PROVO AIRPORT  CLOUDY    61  55  82 SE13      29.98R THUNDER
SALT LAKE CITY LGT RAIN  65  59  81 E9        29.92R
VERNAL         CLOUDY    60  57  89 CALM      29.99S
WENDOVER       MOCLDY    70  46  43 SW3       29.91S
HEBER CITY     DRIZZLE   59  54  82 CALM      29.99R
WEST JORDAN    CLOUDY    66  64  94 SE9       29.93S

$$

UTZ012>022-026-027-201000-

SOUTHERN UTAH

CITY           SKY/WX    TMP DP  RH WIND       PRES   REMARKS
BRYCE CANYON   PTCLDY    48  46  93 NW8       30.17S
CEDAR CITY     MOCLDY    60  50  69 VRB5      30.03F
MILFORD        CLOUDY    60  55  83 SW7       29.98S
MOAB/CYNLANDS  PTCLDY    63  62  97 CALM      29.95S
PRICE          CLOUDY    60  57  89 E6        30.03S
ST GEORGE      CLOUDY    68  63  83 SE5       29.94S

$$

REGIONAL REPORTS     COLORADO/ARIZONA

CITY           SKY/WX    TMP DP  RH WIND       PRES   REMARKS
CRAIG, CO      LGT RAIN  57  54  89 NE3       30.04S
GRAND JUNCTION LGT RAIN  61  61 100 CALM      29.98S
RIFLE          CLOUDY    61  57  87 CALM      30.02S
MONTROSE       LGT RAIN  62  58  86 S6        30.06R
CORTEZ         CLOUDY    60  58  92 CALM      30.08S
PAGE, AZ       CLEAR     67  60  78 CALM      29.98S
GRAND CANYON     N/A    N/A N/A N/A MISG        N/A
KINGMAN        CLEAR     68  56  65 SE16      29.95R
FLAGSTAFF      MOCLDY    51  48  89 CALM      30.19S

$$

REGIONAL REPORTS    NEVADA/IDAHO/WYOMING

CITY           SKY/WX    TMP DP  RH WIND       PRES   REMARKS
LAS VEGAS, NV  PTCLDY    79  54  41 VRB3      29.81R
ELY            CLOUDY    54  53  97 S5        30.07R
ELKO           MOCLDY    61  46  57 E6        29.94S
POCATELLO, ID  CLEAR     57  56  96 CALM      29.91R
BURLEY         PTCLDY    58  51  78 CALM      29.87S
EVANSTON, WY   MOCLDY    53  50  89 S5        30.05F
ROCK SPRINGS   CLOUDY    54  49  83 SW8       30.03S

$$



USA.gov is the U.S. government's official web portal to all federal, state and local government web resources and services.